Date,TemperatureHighF,TemperatureAvgF,TemperatureLowF,DewpointHighF,DewpointAvgF,DewpointLowF,HumidityHigh,HumidityAvg,HumidityLow,PressureMaxIn,PressureMinIn,WindSpeedMaxMPH,WindSpeedAvgMPH,GustSpeedMaxMPH,PrecipitationSumIn
2013-1-1,39,36,32,32,30,21,86,77,63,30.02,29.89,14,7,16,0.00
2013-1-2,32,29,23,21,17,14,79,60,46,30.21,29.99,22,9,24,0.00
2013-1-3,34,28,21,19,18,14,79,64,50,30.22,30.11,18,7,20,0.00
2013-1-4,37,34,30,23,22,19,69,62,55,30.14,30.03,23,9,24,0.00
2013-1-5,39,33,30,27,22,21,80,64,51,30.36,30.08,20,8,24,0.00
2013-1-6,46,38,30,34,29,23,100,74,48,30.21,30.01,15,4,21,0.06
2013-1-7,45,38,30,32,29,27,86,70,56,30.42,30.11,17,8,21,0.00
2013-1-8,45,37,30,32,30,27,93,76,61,30.41,30.36,10,4,0,0.00
2013-1-9,48,40,30,39,34,30,100,81,61,30.39,30.20,12,4,0,0.00
2013-1-10,46,41,36,32,28,27,74,60,49,30.56,30.32,17,8,23,0.00
2013-1-11,45,40,34,43,35,28,100,82,64,30.51,30.09,10,4,0,0.18
2013-1-12,54,46,41,48,44,41,100,96,81,30.18,30.09,7,2,0,0.00
2013-1-13,46,44,39,46,44,39,100,100,100,30.16,30.00,9,3,0,0.00
2013-1-14,52,48,39,52,44,32,100,86,57,30.30,29.96,16,7,20,0.14
2013-1-15,39,36,34,37,33,28,100,87,69,30.35,30.18,10,4,0,0.32
2013-1-16,37,34,32,36,34,32,100,98,93,30.18,29.83,16,5,18,0.81
2013-1-17,39,38,34,36,31,28,93,76,64,30.11,29.94,16,9,22,0.00
2013-1-18,36,31,27,30,17,9,80,57,36,30.48,30.01,22,8,31,0.01
2013-1-19,48,37,28,32,26,14,86,64,48,30.40,29.95,12,6,17,0.00
2013-1-20,54,41,30,30,24,14,69,50,25,30.06,29.78,29,13,37,0.00
2013-1-21,32,29,25,27,14,10,92,55,43,30.10,29.85,20,6,28,0.33
2013-1-22,25,18,12,19,0,-6,85,43,32,30.25,29.88,25,16,33,0.34
2013-1-23,21,15,10,3,0,-4,66,50,35,30.28,30.16,18,8,22,0.00
2013-1-24,27,20,14,9,3,-4,72,50,25,30.45,30.10,22,9,30,0.00
2013-1-25,21,18,12,16,6,0,92,62,38,30.46,30.05,14,4,0,0.43
2013-1-26,28,21,14,16,13,10,92,71,54,30.39,30.05,15,9,21,0.00
2013-1-27,34,26,14,18,15,10,85,63,47,30.56,30.40,14,6,16,0.00
2013-1-28,37,32,28,36,30,19,100,93,68,30.50,30.04,12,4,0,0.23
2013-1-29,57,46,37,48,43,36,100,90,71,30.15,30.02,10,5,0,0.00
2013-1-30,66,53,43,61,52,43,100,96,77,30.04,29.35,23,7,31,1.25
2013-1-31,57,37,28,57,22,10,100,56,43,29.85,29.24,36,18,44,0.01
2013-2-1,30,27,21,21,10,3,74,48,33,30.28,29.83,31,16,38,0.02
2013-2-2,28,23,18,23,12,5,92,63,39,30.32,30.02,16,7,22,0.57
2013-2-3,32,28,23,28,23,16,92,82,58,30.02,29.81,23,4,30,0.31
2013-2-4,32,26,21,23,13,10,79,57,46,30.05,29.88,24,9,30,0.00
2013-2-5,34,31,28,32,28,23,100,90,79,29.94,29.87,10,3,0,0.17
2013-2-6,37,33,27,32,26,18,100,80,54,30.34,29.92,21,8,27,0.00
2013-2-7,34,30,23,23,18,12,79,58,40,30.47,30.26,13,6,18,0.00
2013-2-8,36,34,32,36,32,23,100,91,69,30.26,29.71,22,8,30,1.66
2013-2-9,32,29,25,30,18,12,92,62,50,30.36,29.80,29,17,38,0.08
2013-2-10,39,30,18,30,14,9,92,54,27,30.47,30.29,9,5,0,0.00
2013-2-11,48,40,32,48,39,28,100,98,80,30.30,29.69,15,6,24,0.19
2013-2-12,45,39,30,39,28,25,93,65,48,29.99,29.79,28,12,37,0.00
2013-2-13,43,35,30,34,28,23,100,75,56,29.97,29.68,12,5,16,2.06
2013-2-14,45,37,32,34,30,23,100,79,45,30.02,29.73,13,5,0,0.00
2013-2-15,55,42,32,36,32,28,100,72,40,30.02,29.93,15,6,20,1.11
2013-2-16,34,33,30,34,28,18,100,85,54,30.00,29.80,13,6,20,0.39
2013-2-17,32,27,23,21,11,3,79,49,33,30.09,29.77,32,18,39,0.05
2013-2-18,36,27,19,16,10,3,62,47,31,30.32,30.09,33,11,33,0.00
2013-2-19,41,36,30,41,29,14,100,79,46,30.18,29.71,22,7,23,0.15
2013-2-20,34,29,23,27,15,10,74,56,40,30.07,29.80,24,17,32,0.00
2013-2-21,34,29,23,18,15,10,63,54,46,30.30,30.05,20,14,28,0.00
2013-2-22,34,31,25,32,22,16,100,70,59,30.38,30.23,13,6,21,0.00
2013-2-23,43,38,32,43,38,32,100,100,93,30.24,29.82,13,5,0,0.00
2013-2-24,45,38,32,39,31,21,100,78,51,30.05,29.78,27,11,36,0.00
2013-2-25,37,32,30,27,24,21,80,70,63,30.23,30.05,12,6,0,0.00
2013-2-26,43,36,28,37,30,23,100,77,65,30.23,29.76,27,10,37,0.34
2013-2-27,50,43,37,43,39,32,100,85,61,29.76,29.52,30,9,35,0.05
2013-2-28,43,39,37,36,34,32,93,80,65,29.69,29.63,14,7,20,0.00
2013-3-1,41,37,34,32,30,27,93,74,60,29.83,29.68,14,10,20,0.00
2013-3-2,37,34,32,25,23,21,74,63,51,29.82,29.75,15,10,22,0.00
2013-3-3,36,32,28,23,20,14,69,62,46,29.82,29.75,17,13,28,0.00
2013-3-4,37,32,28,21,20,18,63,59,51,29.99,29.82,28,16,32,0.00
2013-3-5,46,36,28,28,25,21,80,62,45,30.04,29.92,14,8,22,0.00
2013-3-6,39,36,34,36,33,28,100,86,69,29.96,29.74,35,15,38,0.32
2013-3-7,45,39,34,28,26,21,74,60,45,30.10,29.95,22,13,29,0.00
2013-3-8,43,37,32,28,25,19,86,63,51,30.25,30.08,23,15,29,0.43
2013-3-9,61,46,32,23,21,18,64,39,19,30.32,30.23,16,8,22,0.00
2013-3-10,57,46,36,36,26,16,93,47,24,30.35,30.26,10,6,0,0.00
2013-3-11,55,46,37,48,42,36,100,87,62,30.30,30.04,13,6,18,0.00
2013-3-12,55,50,41,55,47,32,100,90,65,30.01,29.73,24,11,27,0.58
2013-3-13,48,40,34,36,28,21,80,64,42,29.98,29.86,24,11,29,0.00
2013-3-14,39,34,30,21,16,12,68,48,32,30.03,29.95,30,19,35,0.00
2013-3-15,52,38,28,32,21,12,75,49,34,30.04,29.76,17,8,24,0.00
2013-3-16,45,37,32,32,31,27,100,82,60,29.92,29.73,15,5,23,0.26
2013-3-17,37,34,30,32,26,19,100,76,47,30.28,29.92,10,5,16,0.00
2013-3-18,36,33,30,34,24,14,100,71,46,30.35,29.92,20,10,28,0.23
2013-4-5,59,56,52,28,23,21,40,28,22,29.89,29.84,16,14,21,0.00
2013-4-6,43,43,43,14,14,14,30,30,30,30.32,30.32,16,16,16,0.00
2013-4-7,61,59,57,37,37,36,44,42,41,30.12,30.02,15,11,29,0.00
2013-4-8,73,59,54,43,43,43,66,58,33,30.02,30.00,5,4,0,0.00
2013-4-9,81,79,77,52,50,48,41,36,32,30.05,29.99,17,14,24,0.00
2013-5-13,55,48,41,30,27,23,65,45,32,30.15,30.06,20,10,24,0.00
2013-5-14,59,48,34,39,30,27,93,53,30,30.20,30.07,16,6,21,0.01
2013-5-15,70,58,48,61,50,39,93,76,59,30.10,29.74,10,4,16,0.04
2013-5-16,81,64,59,64,46,-100,93,75,46,29.91,29.76,15,5,16,0.00
2013-5-17,73,65,55,55,41,-100,82,46,30,30.21,29.91,12,6,16,0.00
2013-5-18,68,61,57,57,51,45,100,71,45,30.29,30.20,14,6,17,0.01
2013-5-19,63,60,57,63,60,57,100,100,100,30.27,30.16,13,7,16,0.00
2013-5-20,77,68,61,68,64,61,100,90,73,30.18,30.02,8,3,0,0.00
2013-5-21,81,72,66,70,68,64,100,87,65,30.03,29.91,10,4,0,0.00
2013-5-22,84,75,66,72,69,64,100,84,54,29.96,29.87,13,4,0,0.00
2013-5-23,79,71,64,70,66,63,100,84,65,29.93,29.79,13,5,16,0.35
2013-5-24,64,55,45,63,49,36,100,82,57,30.08,29.75,27,12,35,0.07
2013-5-25,63,53,45,39,34,32,81,51,33,30.12,30.04,29,16,36,0.00
2013-5-26,68,57,46,37,35,32,65,44,26,30.24,30.09,28,11,31,0.00
2013-5-27,72,60,43,46,39,34,81,48,28,30.30,30.19,13,4,16,0.00
2013-5-28,64,60,54,64,56,45,100,89,58,30.23,30.13,10,3,0,0.07
2013-5-29,88,74,61,70,64,61,100,75,40,30.14,30.09,14,4,20,0.00
2013-5-30,90,79,63,68,64,61,100,64,40,30.21,30.13,14,5,17,0.00
2013-5-31,88,79,70,70,65,55,88,64,35,30.18,30.07,10,4,18,0.00
2013-6-1,88,78,64,70,67,64,100,71,48,30.09,29.96,10,4,0,0.00
2013-6-2,82,77,70,72,67,64,88,72,58,29.96,29.85,14,5,0,0.02
2013-6-3,81,71,64,68,64,55,100,78,50,29.93,29.85,12,5,0,0.25
2013-6-4,73,64,55,57,46,43,82,52,35,30.15,29.93,15,7,18,0.00
2013-6-5,75,65,52,52,44,39,72,48,30,30.23,30.11,10,4,0,0.00
2013-6-6,72,63,55,63,56,50,100,80,52,30.15,29.97,16,6,20,0.13
2013-6-7,68,64,61,66,64,61,100,100,93,29.97,29.62,18,7,25,3.01
2013-6-8,75,67,61,64,62,57,100,82,60,30.12,29.67,16,8,22,0.00
2013-6-9,79,70,57,64,59,55,93,69,47,30.24,30.12,8,3,0,0.00
2013-6-10,73,69,64,72,68,63,100,96,77,30.18,29.81,14,7,18,1.90
2013-6-11,79,72,66,70,65,59,100,78,61,29.84,29.76,18,10,25,0.00
2013-6-12,81,73,64,63,61,59,88,66,50,29.88,29.83,18,9,22,0.00
2013-6-13,82,71,61,72,63,57,100,77,54,29.87,29.45,22,8,27,0.41
2013-6-14,75,64,55,57,54,50,100,71,43,29.98,29.56,20,10,23,0.08
2013-6-15,79,69,55,59,55,52,93,62,41,30.09,29.98,14,6,22,0.00
2013-6-16,81,70,57,68,58,46,88,66,48,30.05,29.89,13,4,25,0.00
2013-6-17,82,73,64,70,66,63,100,80,54,29.98,29.91,10,4,25,0.14
2013-6-18,75,67,63,72,65,61,100,93,78,29.97,29.83,16,3,25,0.59
2013-6-19,75,67,61,64,55,48,100,68,38,30.19,29.91,12,4,22,0.00
2013-6-20,79,66,55,59,55,50,93,69,44,30.31,30.19,9,3,0,0.00
2013-6-21,73,72,70,54,54,54,56,52,49,30.29,30.28,6,4,0,0.00
2013-6-22,82,75,70,66,64,64,82,72,54,30.28,30.17,5,2,0,0.00
2013-6-23,82,72,64,73,68,63,100,88,65,30.23,30.10,9,2,0,0.11
2013-6-24,84,73,70,72,71,66,100,93,65,30.15,30.06,7,3,0,0.04
2013-6-25,81,77,68,72,70,64,88,79,74,30.04,29.92,5,3,0,0.00
2013-8-5,73,69,64,55,54,52,72,59,46,30.09,30.07,3,2,0,0.00
2013-8-6,72,65,57,64,58,52,88,79,67,30.13,30.08,8,4,0,0.00
2013-8-7,73,69,64,70,67,64,100,94,88,30.14,30.07,8,4,0,0.00
2013-8-8,82,72,70,72,69,68,100,90,69,30.08,30.04,8,4,0,0.00
2013-8-9,82,76,73,75,72,72,100,88,78,30.00,29.89,8,5,0,0.00
2013-8-10,81,75,68,72,65,61,94,71,54,30.10,29.95,9,5,0,0.00
2013-8-21,84,74,64,72,67,63,93,79,54,30.23,30.13,6,3,0,0.00
2013-8-22,81,77,72,73,70,68,94,80,69,30.08,29.96,13,6,0,0.00
2013-8-23,73,71,66,70,63,57,94,78,68,30.13,29.97,10,6,0,0.00
2013-8-24,75,70,63,55,54,54,72,56,46,30.33,30.16,8,5,16,0.00
2013-8-25,77,67,57,61,56,54,100,72,44,30.44,30.35,6,3,0,0.00
2013-8-26,82,78,72,66,65,63,83,63,51,30.18,30.01,10,5,0,0.00
2013-8-27,84,76,68,66,65,64,88,71,54,30.01,29.93,10,7,17,0.00